Stations météo

réclame
Mon MeteoGroup
Toulouse/Blagnac, France (7630): Température de l'air & dewpoint: 13.07.2019 06:00:00 - 19.07.2019 06:00:00 (CEST)Toulouse/Blagnac, France (7630): Température de l'air 5cm: 13.07.2019 06:00:00 - 19.07.2019 06:00:00 (CEST)Toulouse/Blagnac, France (7630): Température de l'air -20cm & Température de l'air -100cm: 13.07.2019 06:00:00 - 19.07.2019 06:00:00 (CEST)Toulouse/Blagnac, France (7630): Vitesse du vent & gusts: 13.07.2019 06:00:00 - 19.07.2019 06:00:00 (CEST)Toulouse/Blagnac, France (7630): Direction du vent: 13.07.2019 06:00:00 - 19.07.2019 06:00:00 (CEST)Toulouse/Blagnac, France (7630): reduced air pressure: 13.07.2019 06:00:00 - 19.07.2019 06:00:00 (CEST)Toulouse/Blagnac, France (7630): visibility: 13.07.2019 06:00:00 - 19.07.2019 06:00:00 (CEST)Toulouse/Blagnac, France (7630): Ensoleillement: 13.07.2019 06:00:00 - 19.07.2019 06:00:00 (CEST)Toulouse/Blagnac, France (7630): Quantités de précipitations: 13.07.2019 06:00:00 - 19.07.2019 06:00:00 (CEST)
Date & Time tt [°C] td [°C] tt 5cm [°C] tt -20cm [°C] tt -100cm [°C] ff [km/h] ff [knt] fx [km/h] fx [knt] dd ppp [hPa] vv [km] sd [min] rr [mm]
19.07.2019 06:00:00 17,0 13,3 - - - 4 2 15 8 SSW 1018,5 29 0 -
19.07.2019 05:00:00 17,8 13,1 15,7 26,2 22,2 6 4 14 7 WSW 1018,3 31 0 0,0
19.07.2019 04:00:00 18,3 13,2 16,4 26,4 22,1 8 5 18 10 W 1018,2 32 0 0,0
19.07.2019 03:00:00 19,3 13,2 17,9 26,6 22,2 11 6 21 12 NW 1018,3 33 0 0,0
19.07.2019 02:00:00 19,5 13,2 18,1 26,8 22,1 11 6 23 12 WNW 1018,2 33 0 0,0
19.07.2019 01:00:00 20,7 13,2 19,7 27,0 22,1 16 9 24 13 WNW 1018,2 34 0 0,0
19.07.2019 00:00:00 21,5 12,9 20,4 27,2 22,1 15 8 23 12 WNW 1017,9 38 0 0,0
18.07.2019 23:00:00 22,7 12,6 21,5 27,4 22,2 16 9 23 12 W 1017,8 38 0 0,0
18.07.2019 22:00:00 23,6 11,9 22,4 27,5 22,1 16 9 25 14 WNW 1017,3 33 7 0,0
18.07.2019 21:00:00 25,2 11,4 25,2 27,5 22,1 17 9 32 18 WNW 1016,7 31 60 0,0
18.07.2019 20:00:00 26,5 10,6 29,5 27,4 22,1 19 11 34 18 WNW 1016,3 33 60 0,0
18.07.2019 19:00:00 27,3 10,9 32,3 27,2 22,1 21 11 37 20 WNW 1016,2 26 60 0,0
18.07.2019 18:00:00 27,0 10,7 33,4 26,9 22,1 21 11 36 19 NW 1016,3 26 60 0,0
18.07.2019 17:00:00 27,1 10,7 29,4 26,7 22,1 17 9 32 17 W 1016,7 34 50 0,0
18.07.2019 16:00:00 26,2 11,1 29,4 26,4 22,1 19 10 40 22 NW 1017,1 19 18 0,0
18.07.2019 15:00:00 24,9 11,5 29,1 26,2 22,1 19 10 38 20 NW 1017,4 23 28 0,0
18.07.2019 14:00:00 25,1 12,0 27,3 26,0 22,1 13 7 39 21 WNW 1017,9 52 25 0,0
18.07.2019 13:00:00 22,7 11,7 25,4 26,0 22,1 15 8 34 18 NW 1018,4 15 0 0,0
18.07.2019 12:00:00 22,0 11,7 25,3 26,0 22,1 16 9 31 17 WNW 1018,6 9 0 0,0
18.07.2019 11:00:00 21,3 12,4 21,9 26,1 22,1 13 7 29 16 NW 1018,6 43 3 0,0
18.07.2019 10:00:00 20,2 12,4 21,5 26,2 22,1 18 10 28 15 NNW 1018,9 34 15 0,0
18.07.2019 09:00:00 19,8 13,0 21,3 26,3 22,0 19 10 30 16 NW 1018,6 34 28 0,0
18.07.2019 08:00:00 19,1 13,7 19,2 26,5 22,0 15 8 30 16 NW 1018,6 37 22 0,0
18.07.2019 07:00:00 19,1 13,7 18,9 26,7 22,0 21 11 31 17 NW 1018,3 29 0 0,0
18.07.2019 06:00:00 19,0 14,7 18,9 26,9 22,1 19 11 29 16 W 1017,9 26 0 0,0
18.07.2019 05:00:00 19,1 14,4 19,1 27,2 22,0 20 11 27 15 W 1017,6 27 0 0,0
18.07.2019 04:00:00 19,5 14,1 19,5 27,4 22,0 18 10 34 18 WNW 1017,6 29 0 0,0
18.07.2019 03:00:00 20,1 13,5 19,8 27,6 22,0 22 12 36 19 WNW 1017,2 35 0 0,0
18.07.2019 02:00:00 20,4 12,4 19,7 27,9 22,0 18 10 30 16 WNW 1016,9 45 0 0,0
18.07.2019 01:00:00 21,6 12,2 20,7 28,2 22,1 16 9 32 17 WNW 1016,6 44 0 0,0
18.07.2019 00:00:00 23,2 12,2 22,5 28,3 22,0 26 14 45 24 NW 1016,0 46 0 0,0
17.07.2019 23:00:00 24,8 14,0 24,2 28,5 22,0 28 15 41 22 WNW 1015,9 38 0 0,0
17.07.2019 22:00:00 26,1 14,2 25,2 28,6 22,0 22 12 36 19 W 1014,7 33 8 0,0
17.07.2019 21:00:00 27,5 14,2 27,0 28,7 22,0 26 14 41 22 W 1014,0 28 25 0,0
17.07.2019 20:00:00 28,6 14,1 29,5 28,6 22,0 24 13 39 21 W 1013,4 19 16 0,0
17.07.2019 19:00:00 29,6 12,9 31,6 28,4 22,0 22 12 42 23 W 1013,3 20 44 0,0
17.07.2019 18:00:00 30,5 12,4 36,5 28,2 22,0 21 11 38 21 WNW 1013,4 22 60 0,0
17.07.2019 17:00:00 29,9 13,6 32,2 27,9 22,0 24 13 40 22 W 1013,9 27 36 0,0
17.07.2019 16:00:00 29,2 13,0 33,3 27,5 22,0 20 11 35 19 W 1014,2 31 20 0,0
17.07.2019 15:00:00 30,0 11,5 37,5 27,0 21,9 16 9 38 21 WSW 1014,4 20 57 0,0
17.07.2019 14:00:00 29,2 12,2 34,2 26,6 22,0 16 9 31 17 WNW 1014,8 19 51 0,0
17.07.2019 13:00:00 28,4 12,7 35,2 26,3 22,0 14 8 26 14 WSW 1015,4 28 58 0,0
17.07.2019 12:00:00 27,3 14,0 36,0 26,0 21,9 11 6 30 16 WNW 1015,4 25 60 0,0
17.07.2019 11:00:00 25,5 14,0 32,1 25,9 21,9 8 4 20 11 WNW 1015,6 24 60 0,0
17.07.2019 10:00:00 23,4 13,6 28,1 26,0 21,9 9 5 18 10 WNW 1015,9 20 60 0,0
17.07.2019 09:00:00 21,6 13,8 22,1 26,1 21,9 11 6 23 12 WNW 1016,2 22 60 0,0
17.07.2019 08:00:00 20,0 13,7 18,1 26,4 21,9 10 5 18 10 W 1016,0 26 49 0,0
17.07.2019 07:00:00 18,9 13,3 15,4 26,6 21,9 9 5 19 10 WSW 1016,1 28 6 0,0
17.07.2019 06:00:00 17,9 12,8 14,8 26,9 21,9 5 3 14 8 SW 1015,8 29 0 0,0
17.07.2019 05:00:00 18,0 12,9 15,8 27,1 21,9 9 5 13 7 S 1015,7 30 0 0,0
17.07.2019 04:00:00 18,6 12,3 16,0 27,4 21,9 8 4 13 7 SSW 1015,4 35 0 0,0
17.07.2019 03:00:00 20,4 12,4 17,9 27,7 21,9 7 4 18 10 SW 1015,3 36 0 0,0
17.07.2019 02:00:00 22,5 12,7 21,0 27,9 21,9 11 6 22 12 NW 1015,3 38 0 0,0
17.07.2019 01:00:00 23,2 11,3 21,7 28,1 21,9 13 7 20 11 NW 1015,5 41 0 0,0
17.07.2019 00:00:00 24,3 9,8 22,1 28,4 21,9 14 8 22 12 WNW 1015,7 48 0 0,0
16.07.2019 23:00:00 25,7 8,7 23,1 28,6 21,9 11 6 18 10 NW 1015,4 20 0 0,0
16.07.2019 22:00:00 26,9 7,4 25,0 28,7 21,9 11 6 25 14 NW 1015,0 20 4 0,0
16.07.2019 21:00:00 28,6 7,8 28,1 28,7 21,9 16 9 26 14 NW 1014,9 51 56 0,0
16.07.2019 20:00:00 29,8 7,7 33,6 28,6 21,9 15 8 29 15 N 1014,4 53 60 0,0
16.07.2019 19:00:00 30,5 7,6 36,4 28,4 21,9 18 10 31 17 N 1014,2 34 60 0,0
16.07.2019 18:00:00 31,3 6,4 37,7 28,0 21,9 18 10 30 16 NW 1014,3 20 60 0,0
16.07.2019 17:00:00 30,8 6,6 35,0 27,5 21,9 11 6 33 18 W 1014,8 43 53 0,0
16.07.2019 16:00:00 30,1 7,3 35,0 27,0 21,9 14 8 31 17 NW 1015,1 53 52 0,0
16.07.2019 15:00:00 29,4 7,3 39,0 26,4 21,9 15 8 30 16 NW 1015,6 20 60 0,0
16.07.2019 14:00:00 29,3 8,9 38,1 26,0 21,9 13 7 35 19 NNW 1016,0 45 60 0,0
16.07.2019 13:00:00 28,2 9,0 36,5 25,6 21,8 7 4 28 15 N 1016,2 20 60 0,0
16.07.2019 12:00:00 27,0 9,8 35,0 25,4 21,8 14 7 31 17 W 1016,6 35 60 0,0
16.07.2019 11:00:00 25,2 11,7 31,5 25,2 21,8 11 6 22 12 WNW 1016,8 48 60 0,0
16.07.2019 10:00:00 22,6 11,9 28,6 25,3 21,8 9 5 18 10 NW 1017,2 17 60 0,0
16.07.2019 09:00:00 20,2 12,2 23,1 25,5 21,8 9 5 16 9 NW 1017,4 18 60 0,0
16.07.2019 08:00:00 18,3 11,8 15,5 25,7 21,8 6 4 11 6 W 1017,2 26 60 0,0
16.07.2019 07:00:00 15,2 10,8 12,5 26,0 21,8 5 3 15 8 S 1017,1 12 9 0,0
16.07.2019 06:00:00 15,1 10,5 11,9 26,3 21,8 7 4 12 7 S 1017,0 41 0 0,0
16.07.2019 05:00:00 15,4 10,2 12,3 26,6 21,8 8 4 15 8 S 1016,8 43 0 0,0
16.07.2019 04:00:00 16,9 10,0 13,0 26,9 21,8 13 7 16 8 SSW 1016,9 45 0 0,0
16.07.2019 03:00:00 19,5 9,4 13,6 27,1 21,8 3 1 11 6 W 1016,8 41 0 0,0
16.07.2019 02:00:00 20,8 9,4 18,2 27,4 21,8 9 5 13 7 NW 1016,9 44 0 0,0
16.07.2019 01:00:00 21,4 9,0 19,3 27,7 21,8 10 5 19 10 NW 1016,8 45 0 0,0
16.07.2019 00:00:00 22,4 8,5 20,6 27,9 21,8 13 7 25 14 NW 1016,5 43 0 0,0
15.07.2019 23:00:00 24,0 8,0 22,2 28,1 21,7 16 9 23 12 W 1016,1 51 0 0,0
15.07.2019 22:00:00 24,7 8,2 22,6 28,2 21,7 13 7 25 13 WNW 1015,6 54 9 0,0
15.07.2019 21:00:00 27,2 7,6 27,2 28,3 21,8 19 10 35 19 NW 1015,0 27 60 0,0
15.07.2019 20:00:00 28,2 6,9 31,3 28,2 21,7 21 12 37 20 NNW 1014,5 11 60 0,0
15.07.2019 19:00:00 29,0 5,8 34,1 28,0 21,7 23 13 40 22 NW 1014,3 8 60 0,0
15.07.2019 18:00:00 29,0 7,0 35,1 27,7 21,7 26 14 45 24 NW 1014,1 7 60 0,0
15.07.2019 17:00:00 29,6 6,3 36,8 27,3 21,7 21 11 49 26 NW 1013,9 8 60 0,0
15.07.2019 16:00:00 29,2 6,5 36,9 26,9 21,7 24 13 42 23 WNW 1014,0 10 60 0,0
15.07.2019 15:00:00 28,3 7,0 36,8 26,4 21,7 21 11 43 23 WNW 1014,1 12 60 0,0
15.07.2019 14:00:00 27,5 6,3 35,7 26,0 21,7 18 10 37 20 NW 1014,5 11 60 0,0
15.07.2019 13:00:00 26,5 7,5 34,1 25,7 21,7 17 9 38 21 NW 1014,9 13 60 0,0
15.07.2019 12:00:00 25,6 9,0 32,9 25,5 21,7 20 11 36 19 WNW 1015,0 11 60 0,0
15.07.2019 11:00:00 23,8 10,5 31,2 25,5 21,7 14 8 33 18 WNW 1015,3 7 60 0,0
15.07.2019 10:00:00 21,6 10,4 26,8 25,6 21,7 11 6 24 13 NNW 1015,8 15 60 0,0
15.07.2019 09:00:00 19,9 10,3 21,9 25,7 21,7 14 8 23 12 NNW 1015,7 22 60 0,0
15.07.2019 08:00:00 18,4 10,5 17,4 26,0 21,7 12 6 18 10 WNW 1015,6 38 60 0,0
15.07.2019 07:00:00 17,2 10,3 15,0 26,2 21,7 11 6 19 10 WNW 1015,2 28 10 0,0
15.07.2019 06:00:00 17,5 9,9 15,6 26,5 21,6 10 5 17 9 NW 1014,7 51 0 0,0
15.07.2019 05:00:00 18,5 10,1 16,9 26,7 21,7 12 7 21 12 NW 1014,3 51 0 0,0
15.07.2019 04:00:00 19,4 10,1 18,1 27,0 21,6 15 8 23 13 NW 1014,4 51 0 0,0
15.07.2019 03:00:00 20,7 9,9 19,5 27,3 21,6 17 9 29 15 WNW 1014,3 55 0 0,0
15.07.2019 02:00:00 21,4 10,2 20,2 27,5 21,6 16 8 31 17 WNW 1014,2 51 0 0,0
15.07.2019 01:00:00 22,0 10,2 20,9 27,8 21,6 16 9 30 16 WNW 1014,1 49 0 0,0
15.07.2019 00:00:00 22,7 10,5 21,2 28,0 21,6 14 8 24 13 W 1014,0 55 0 0,0
14.07.2019 23:00:00 24,2 10,5 22,8 28,2 21,6 16 8 24 13 WNW 1013,6 50 0 0,0
14.07.2019 22:00:00 25,7 9,9 24,3 28,3 21,6 17 9 34 18 WNW 1012,8 53 5 0,0
14.07.2019 21:00:00 27,4 10,1 26,8 28,4 21,6 19 10 43 23 WNW 1012,2 27 41 0,0
14.07.2019 20:00:00 29,1 9,2 31,4 28,3 21,6 28 15 45 25 NW 1011,8 4,3 60 0,0
14.07.2019 19:00:00 29,9 8,3 34,1 28,2 21,6 32 17 48 26 NNW 1011,6 2,5 60 0,0
14.07.2019 18:00:00 30,3 7,5 35,9 27,9 21,6 29 16 48 26 NW 1011,5 1,4 60 0,0
14.07.2019 17:00:00 30,8 9,1 37,7 27,5 21,6 26 14 45 25 NW 1011,4 2,7 60 0,0
14.07.2019 16:00:00 30,2 8,6 37,3 27,1 21,6 25 14 49 26 NW 1011,5 3,7 60 0,0
14.07.2019 15:00:00 30,4 9,8 37,6 26,7 21,6 26 14 55 30 NW 1011,7 8 60 0,0
14.07.2019 14:00:00 29,6 10,2 37,2 26,3 21,6 27 15 42 23 NW 1011,9 10 60 0,0
14.07.2019 13:00:00 28,5 9,7 36,3 26,0 21,5 19 10 38 21 NW 1012,2 13 60 0,0
14.07.2019 12:00:00 26,9 12,2 33,3 25,8 21,6 17 9 33 18 NW 1012,7 16 60 0,0
14.07.2019 11:00:00 25,0 13,2 30,8 25,8 21,5 20 11 36 19 NW 1013,0 16 60 0,0
14.07.2019 10:00:00 23,3 13,5 27,6 25,9 21,5 18 10 27 15 WNW 1013,3 20 60 0,0
14.07.2019 09:00:00 21,8 13,9 23,0 26,0 21,5 14 8 26 14 W 1013,5 27 60 0,0
14.07.2019 08:00:00 20,5 13,5 19,4 26,3 21,5 19 11 28 15 WNW 1013,4 18 60 0,0
14.07.2019 07:00:00 19,6 13,5 19,0 26,5 21,5 18 10 25 13 WNW 1013,3 26 10 0,0
14.07.2019 06:00:00 20,5 13,5 17,7 26,7 21,5 13 7 20 11 W 1013,3 46 0 0,0
14.07.2019 05:00:00 20,5 12,7 18,9 26,9 21,5 8 4 13 7 WNW 1013,3 48 0 0,0
14.07.2019 04:00:00 21,6 12,4 20,1 27,2 21,5 9 5 21 11 NW 1013,6 55 0 0,0
14.07.2019 03:00:00 22,5 12,4 21,2 27,4 21,5 14 7 19 10 NW 1013,9 57 0 0,0
14.07.2019 02:00:00 23,1 13,0 21,6 27,6 21,5 13 7 20 11 NW 1014,0 55 0 0,0
14.07.2019 01:00:00 24,1 13,3 22,5 27,9 21,5 15 8 20 11 NW 1013,6 48 0 0,0
14.07.2019 00:00:00 25,2 12,8 23,2 28,1 21,5 11 6 18 10 NW 1013,4 43 0 0,0
13.07.2019 23:00:00 26,5 12,2 24,7 28,2 21,4 11 6 16 8 NNW 1013,4 47 0 0,0
13.07.2019 22:00:00 26,9 11,4 25,3 28,3 21,4 10 6 16 9 WNW 1013,4 57 10 0,0
13.07.2019 21:00:00 28,7 10,4 28,4 28,4 21,5 14 8 27 14 NW 1013,5 18 41 0,0
13.07.2019 20:00:00 30,1 10,6 33,2 28,3 21,4 17 9 28 15 NW 1013,6 19 58 0,0
13.07.2019 19:00:00 30,4 11,9 36,6 28,1 21,4 17 9 32 18 NNW 1013,5 9 60 0,0
13.07.2019 18:00:00 30,9 11,8 37,4 27,7 21,4 13 7 43 23 N 1014,0 10 60 0,0
13.07.2019 17:00:00 30,1 14,2 38,4 27,3 21,4 15 8 33 18 N 1014,9 9 60 0,0
13.07.2019 16:00:00 29,5 13,7 34,4 26,9 21,4 13 7 36 19 N 1015,1 9 55 0,0
13.07.2019 15:00:00 29,5 16,3 33,8 26,5 21,4 13 7 33 18 N 1015,9 13 48 0,0
13.07.2019 14:00:00 28,1 16,1 32,5 26,1 21,4 15 8 32 17 N 1016,7 14 46 0,0
13.07.2019 13:00:00 27,1 17,6 29,2 25,9 21,4 15 8 29 16 WNW 1017,3 12 38 0,0
13.07.2019 12:00:00 25,5 17,4 27,5 25,8 21,4 16 9 30 16 WNW 1017,7 27 9 0,0
13.07.2019 11:00:00 25,0 18,0 28,3 25,8 21,4 12 7 23 13 W 1017,9 20 42 0,0
13.07.2019 10:00:00 24,0 18,2 30,0 25,8 21,4 8 4 22 12 WNW 1017,9 33 60 0,0
13.07.2019 09:00:00 22,3 17,7 24,7 25,9 21,4 10 6 32 17 NW 1018,2 25 60 0,0
13.07.2019 08:00:00 21,3 17,1 20,8 26,1 21,4 13 7 27 15 WNW 1018,1 36 60 0,0
13.07.2019 07:00:00 20,5 17,1 19,1 26,3 21,4 16 9 22 12 W 1017,9 16 4 0,0
13.07.2019 06:00:00 20,0 16,2 18,3 26,5 21,4 6 3 15 8 W 1017,9 32 0 0,0

tt = Température de l'air
td = dewpoint
tt 5cm = Température de l'air 5cm
tt -20cm = Température de l'air -20cm
tt -100cm = Température de l'air -100cm
ff = Vitesse du vent
fx = gusts
dd = Direction du vent
ppp = reduced air pressure
vv = visibility
sd = Ensoleillement
rr = Quantités de précipitations

stations d'obs. à proximité